SCP
0 0 0 0 0 0 0 0 0 0 0 0 0 0 0 0 1 1 1 1 1 1 1 1 1 1 1 1 1 1 1 1 1 1 1 1 0 0 0 0 0 0 0 0
0 0 0 0 0 0 0 0 0 0 0 0 0 0 0 0 1 1 1 1 1 1 1 1 1 1 1 1 1 1 1 1 1 1 1 1 0 0 0 0 0 0 0 0
0 0 0 0 0 0 0 0 0 0 0 0 0 0 0 0 0 1 1 1 1 1 1 1 1 1 1 1 1 1 1 1 0 0 1 1 0 0 0 0 0 0 0 0
0 0 0 0 0 0 0 0 0 0 0 0 0 0 0 0 0 0 1 1 1 1 1 1 1 1 1 1 1 1 1 1 0 0 0 0 0 0 0 0 0 0 0 0
0 0 0 0 0 0 0 0 0 0 0 0 0 0 0 0 0 0 0 1 1 1 1 1 1 1 1 1 1 1 1 1 0 0 0 0 0 0 0 0 0 0 0 0
0 0 0 0 0 0 0 0 0 0 0 0 0 0 0 0 0 0 0 0 1 1 1 1 1 1 1 1 1 1 1 1 0 0 0 0 0 0 0 0 0 0 0 0
0 0 0 0 0 0 0 0 0 0 0 0 0 0 0 0 0 0 0 0 1 1 1 1 1 1 1 1 1 1 1 0 0 0 0 0 0 0 0 0 0 0 0 0
0 0 0 0 0 0 0 0 0 0 0 0 0 0 0 0 0 0 0 0 1 1 1 1 1 1 1 1 0 0 0 0 0 0 0 0 0 0 0 0 0 0 0 0
0 0 0 0 0 0 0 0 0 0 0 0 0 0 0 0 0 0 0 0 0 1 1 1 1 1 0 0 0 0 0 0 0 0 0 0 0 0 0 0 0 0 0 0
0 0 0 0 0 0 0 0 0 0 0 0 0 0 0 0 0 0 0 0 0 1 1 1 0 0 0 0 0 0 0 0 0 0 0 0 0 0 0 0 0 0 0 0
0 0 0 0 0 0 0 0 0 0 0 0 0 0 0 0 0 0 0 0 0 0 0 0 0 0 0 0 0 0 0 0 0 0 0 0 0 0 0 0 0 0 0 0
0 0 0 0 0 0 0 0 0 0 0 0 0 0 0 0 0 0 0 0 0 0 0 0 0 0 0 0 0 0 0 0 0 0 0 0 0 0 0 0 0 0 0 0
0 0 0 0 0 0 0 0 0 0 0 0 0 0 0 0 0 0 0 0 0 0 0 0 0 0 0 0 0 0 0 0 0 0 0 0 0 0 0 0 0 0 0 0
0 0 0 0 0 0 0 0 0 0 0 0 0 0 0 0 0 0 0 0 0 0 0 0 0 0 0 0 0 0 0 0 0 0 0 0 0 0 0 0 0 0 0 0
0 0 0 0 0 0 0 0 0 0 0 0 0 0 0 0 0 0 0 0 0 0 0 0 0 0 0 0 0 0 0 0 0 0 0 0 0 0 0 0 0 0 0 0
0 0 0 0 0 0 0 0 0 0 0 0 0 0 0 0 0 0 0 0 0 0 0 0 0 0 0 0 0 0 0 0 0 0 0 0 0 0 0 0 0 0 0 0
0 0 0 0 0 0 0 0 0 0 0 0 0 0 0 0 0 0 0 0 0 0 0 0 0 0 0 0 0 0 0 0 0 0 0 0 0 0 0 0 0 0 0 0
0 0 0 0 0 0 0 0 0 0 0 0 0 0 0 0 0 0 0 0 0 0 0 0 0 0 0 0 0 0 0 0 0 0 0 0 0 0 0 0 0 0 0 0
0 0 0 0 0 0 0 0 0 0 0 0 0 0 0 0 0 0 0 0 0 0 0 0 0 0 0 0 0 0 0 0 0 0 0 0 0 0 0 0 0 0 0 0
0 0 0 0 0 0 0 0 0 0 0 0 0 0 0 0 0 0 0 0 0 0 0 0 0 0 0 0 0 0 0 0 0 0 0 0 0 0 0 0 0 0 0 0
0 0 0 0 0 0 0 0 0 0 0 0 0 0 0 0 0 0 0 0 0 0 0 0 0 0 0 0 0 0 0 0 0 0 0 0 0 0 0 0 0 0 0 0
0 0 0 0 0 0 0 0 0 0 0 0 0 0 0 0 0 0 0 0 0 0 0 0 0 0 0 0 0 0 0 0 0 0 0 0 0 0 0 0 0 0 0 0
0 0 0 0 0 0 0 0 0 0 0 0 0 0 0 0 0 0 0 0 0 0 0 0 0 0 0 0 0 0 0 0 0 0 0 0 0 0 0 0 0 0 0 0
0 0 0 0 0 0 0 0 0 0 0 0 0 0 0 0 0 0 0 0 0 0 0 0 0 0 0 0 0 0 0 0 0 0 0 0 0 0 0 0 0 0 0 0
0 0 0 0 0 0 0 0 0 0 0 0 0 -0 0 0 0 0 0 0 0 0 0 0 0 0 0 0 0 0 0 0 0 0 0 0 0 0 0 0 0 0 0 0
0 0 0 0 0 0 0 0 0 0 0 0 0 0 -0 -0 0 0 0 0 0 0 0 0 0 0 0 0 0 0 0 0 0 0 0 0 0 0 0 0 0 0 0 0
Wind_Speed
2 3 4 7 7 7 5 3 4 6 4 3 4 4 5 6 7 8 7 6 6 5 4 4 4 5 5 4 4 4 3 2 2 1 1 1 1 1 1 1 1 2 2 2
5 5 11 8 5 3 3 2 4 5 2 3 3 3 3 4 6 8 9 8 7 6 5 5 4 3 3 4 4 3 3 2 2 2 2 1 1 1 1 0 1 1 1 1
6 9 7 4 4 3 2 2 2 2 2 3 3 3 1 1 1 3 6 7 7 9 9 7 5 3 3 3 4 3 3 2 1 1 1 2 2 1 1 1 1 1 1 1
5 6 3 2 3 1 3 4 2 0 2 2 1 1 3 2 2 3 5 5 7 7 8 7 7 5 5 4 3 3 3 2 1 2 2 3 2 1 1 1 0 1 1 1
5 4 2 3 4 2 4 2 1 1 1 1 3 2 5 2 3 5 5 6 6 7 8 7 6 6 4 4 3 3 3 2 2 2 3 3 2 1 1 1 1 1 1 1
6 4 3 3 3 1 0 4 6 5 5 2 3 1 4 3 5 4 5 6 6 7 7 6 5 5 4 3 3 3 3 2 2 2 3 3 3 2 2 1 1 0 0 0
6 5 4 1 3 5 4 5 4 6 5 4 3 1 5 4 3 4 6 6 6 7 7 6 5 5 5 4 3 3 4 3 2 2 2 2 2 2 2 1 1 1 0 0
2 6 4 2 1 3 1 6 6 3 4 5 3 2 4 2 1 3 4 5 6 6 6 6 6 5 5 4 3 3 3 2 2 2 2 2 2 1 1 1 1 1 1 1
1 5 5 4 1 2 1 1 6 6 1 1 3 3 4 1 1 2 4 5 6 7 6 6 5 4 5 4 3 4 3 2 1 1 1 1 1 1 1 0 0 1 1 1
2 3 5 5 4 3 3 3 5 4 2 2 3 3 4 5 4 3 4 5 5 6 6 5 5 4 4 4 3 3 4 3 2 1 1 1 1 1 0 0 0 1 1 1
2 1 5 4 1 2 3 2 3 3 4 4 3 6 5 7 7 6 5 5 6 6 7 6 5 4 4 3 2 2 2 2 2 2 1 1 1 1 1 0 1 1 1 1
2 3 2 5 5 2 1 2 4 3 3 3 3 7 4 5 6 7 6 5 5 5 5 6 5 4 4 3 3 2 2 2 2 2 2 1 0 0 0 1 1 1 1 1
2 4 3 8 8 5 3 2 1 4 3 2 3 6 1 3 4 5 6 5 5 6 5 5 4 4 4 3 3 2 2 2 2 2 2 1 0 0 1 1 1 1 0 1
4 3 4 5 6 5 6 7 4 2 2 3 5 6 3 3 5 5 5 5 5 6 6 6 4 3 3 3 2 2 2 2 3 2 2 2 1 1 1 1 1 1 1 0
4 0 3 5 6 6 7 8 6 4 5 5 6 6 7 8 8 8 7 6 6 6 6 6 5 4 3 3 2 2 2 2 2 2 2 2 1 1 0 1 1 1 1 1
2 1 2 4 6 7 8 8 6 4 2 3 2 3 3 5 5 6 6 7 7 6 6 6 6 5 4 4 3 2 2 1 2 2 2 1 1 0 0 1 1 1 1 1
1 2 1 4 6 6 6 5 3 2 2 4 5 5 5 5 6 8 8 8 7 7 6 7 6 5 5 4 4 3 3 2 2 2 2 1 1 1 0 0 1 1 1 1
5 2 2 2 3 4 8 4 1 1 2 1 3 5 8 7 6 5 6 8 7 6 6 6 6 5 4 3 3 3 2 2 2 1 1 1 1 1 1 0 0 1 1 0
5 5 2 2 2 6 7 4 1 1 2 0 3 4 5 6 5 1 3 7 7 6 6 6 5 5 4 4 4 4 2 2 2 1 1 1 2 1 1 0 1 1 1 1
2 4 3 2 2 5 7 5 2 3 2 2 3 5 6 6 3 3 3 6 6 5 5 5 5 4 4 3 4 4 3 2 2 2 2 1 1 1 1 1 1 1 1 1
3 1 2 3 4 6 5 3 2 1 6 3 3 5 6 5 5 5 6 6 7 6 6 6 5 4 3 4 4 4 3 2 3 2 2 1 1 1 2 1 1 1 1 1
2 2 3 2 3 7 4 1 2 5 2 3 3 5 6 5 6 6 7 7 7 6 5 6 5 3 2 3 4 3 3 3 2 2 1 1 1 1 1 1 1 1 1 1
2 4 3 4 7 7 3 3 3 3 3 1 3 5 8 8 7 7 6 6 6 6 5 4 5 4 2 2 4 4 3 2 2 2 1 1 1 1 1 1 1 1 1 1
3 1 1 3 5 5 4 2 2 1 1 3 6 7 8 8 8 7 6 5 5 5 4 4 5 4 2 2 3 4 3 3 3 2 1 2 1 2 2 1 1 2 2 2
6 3 3 5 6 3 3 2 1 1 2 5 5 5 8 9 8 7 6 6 5 5 4 4 5 4 3 3 3 3 3 3 3 2 1 2 2 2 2 2 2 3 3 4
6 6 6 8 7 4 6 5 1 2 3 5 5 4 5 8 8 7 6 5 5 5 4 4 4 4 3 3 3 3 3 3 3 2 1 1 1 1 2 2 3 4 5 6
Wind_Direction
322 48 267 248 220 210 228 260 276 272 262 121 140 153 169 159 159 164 170 173 169 161 148 133 134 135 130 127 114 115 123 138 135 135 136 141 165 145 111 151 143 130 120 120
9 283 253 253 258 245 250 262 281 300 316 109 123 130 156 159 179 174 172 178 169 146 134 140 134 130 132 136 131 126 134 148 155 164 170 168 151 140 140 114 80 93 97 116
214 248 260 252 270 288 298 230 250 258 356 46 80 24 39 227 137 167 178 173 164 163 157 153 146 139 146 143 138 137 146 150 142 145 119 93 67 51 51 55 36 27 75 81
247 258 287 303 282 230 276 264 251 159 75 298 104 244 280 213 193 190 186 170 172 163 153 156 154 154 160 157 145 149 150 141 126 117 123 132 129 152 196 178 122 17 55 82
281 290 301 288 257 224 233 253 350 34 101 25 4 120 272 196 221 227 202 187 179 162 155 159 158 156 149 146 140 139 125 110 104 113 129 124 119 137 123 98 81 38 20 44
268 268 228 232 260 239 207 38 23 35 58 6 278 186 273 239 217 205 197 193 179 158 152 152 149 141 138 135 128 124 116 99 97 107 115 124 128 124 115 103 116 63 16 19
321 316 308 309 337 342 58 74 24 3 8 264 278 156 247 260 232 188 182 181 172 155 150 148 144 144 141 138 141 130 123 109 94 94 94 104 121 130 138 153 174 173 163 285
335 307 300 307 215 225 227 135 154 195 231 273 321 235 254 266 71 120 145 158 152 146 149 152 150 147 139 130 124 130 125 114 104 103 102 94 95 98 113 180 177 178 194 218
229 281 301 300 300 139 139 181 171 146 197 274 274 265 289 329 62 111 120 126 146 155 150 148 147 146 139 132 131 130 123 118 110 114 112 78 71 71 53 14 122 182 204 205
154 279 302 322 7 12 145 158 85 100 160 269 276 248 233 227 221 198 152 153 159 160 154 152 152 149 145 142 142 130 135 146 134 110 123 112 68 28 354 18 298 236 241 213
90 145 310 351 351 301 356 24 101 127 164 174 247 263 228 202 200 188 188 170 159 158 160 159 156 147 133 129 139 142 141 131 130 135 129 103 67 33 17 338 269 248 248 225
45 107 292 285 276 242 191 200 148 160 237 189 201 262 276 185 177 164 161 155 150 153 158 158 153 141 136 148 161 169 165 155 154 153 143 126 94 80 311 298 292 282 300 295
48 86 9 338 341 349 351 298 227 152 139 180 199 260 294 114 127 143 143 140 139 141 144 142 142 150 161 172 174 180 171 168 161 140 132 121 80 272 286 296 298 295 330 342
70 102 169 222 251 275 297 301 295 138 162 226 224 228 233 172 158 159 151 148 147 148 150 153 157 163 165 158 155 160 172 170 155 136 136 149 213 232 251 277 293 309 313 300
67 191 246 258 276 287 292 291 285 264 212 208 230 216 217 195 179 169 164 158 150 155 157 162 167 169 162 151 155 151 156 157 153 145 151 191 226 240 277 327 310 315 317 266
52 228 302 305 294 299 301 293 281 273 235 198 201 252 211 161 148 151 163 163 162 165 164 161 162 167 166 165 165 156 150 152 140 140 164 196 203 204 329 290 297 339 343 338
218 163 343 280 292 326 297 269 253 267 235 187 211 221 165 151 165 171 176 170 168 166 165 163 167 174 172 173 166 166 172 163 152 159 165 183 159 155 222 216 34 6 338 3
183 174 177 258 339 261 251 263 199 176 255 171 158 174 169 170 172 173 167 164 167 163 159 162 163 166 171 169 158 156 147 151 156 155 161 173 166 169 175 110 26 302 295 312
174 162 172 180 237 273 281 287 235 187 276 188 128 146 151 132 95 59 174 158 162 161 158 161 164 163 162 164 163 144 138 146 145 157 176 177 158 154 151 230 278 277 289 305
68 117 154 187 207 248 255 279 265 92 290 300 134 149 148 128 142 226 177 134 128 133 138 144 143 135 152 170 150 137 148 154 188 189 184 176 163 162 188 236 264 284 286 283
351 347 209 218 228 257 263 280 37 126 248 245 165 162 158 167 189 171 140 126 127 131 132 135 133 137 161 159 140 141 154 189 206 189 171 187 214 210 213 236 262 280 300 319
237 230 230 194 224 250 299 34 173 222 226 161 147 150 142 133 122 122 128 129 128 130 135 139 138 143 152 146 140 151 185 200 176 152 151 211 254 252 206 227 294 307 309 318
226 201 210 210 231 262 282 235 229 170 148 157 139 143 136 134 140 130 134 141 141 145 147 145 145 145 154 159 153 162 196 178 150 138 175 252 276 286 259 226 254 289 297 288
284 289 248 282 277 291 302 343 3 64 132 154 142 138 139 141 147 140 142 149 151 152 152 142 139 147 164 176 168 179 184 163 151 169 224 254 268 287 295 283 246 234 251 261
264 293 278 271 271 304 299 280 277 1 97 110 119 132 146 143 148 148 151 158 162 158 153 147 151 161 176 173 171 181 174 158 157 185 231 256 251 257 285 287 262 240 241 233
237 221 223 245 240 232 256 260 201 145 149 144 134 125 144 148 151 149 155 163 164 158 152 152 159 168 179 173 178 193 180 163 163 192 244 253 254 269 271 283 307 301 269 270